Volver al catálogo

STARLINK-37062

ActivoComunicacionesVLEO
NORAD 68087·PAYLOAD·🇺🇸 United States

Lanzado Mar 4, 2026 desde Vandenberg Space Force Base

Loading…

Próximos Pases (próximas 24 horas)

TLE

ActualizadoSource: CelesTrak SupGP

Época: Sep 14, 2026, 21:25 UTC

1 68087C 26042U   26257.89284722  .00012746  00000+0  37682-3 0  2572
2 68087  53.1590  15.6089 0001352  84.6862 258.3449 15.34364045    19

Sigue STARLINK-37062 en tiempo real con AllMySat

Download on the App Store